Overview Statistics Trail Chart Weather Telemetry Raw packets
 

This is the latest recevied weather packets stored in our database for station/object VE8SKI. If no packets are shown the sender has not sent any weather packets the latest 10 day(s).

<< 52 53 54 55 56 57 58 >>
Time Temp. Humidity Pressure Rain* Wind** Luminosity Snow
1777755106 6.11° C 59% 1008.5 hPa 0 mm 2.24 m/s, 113° - -
1777754807 6.11° C 59% 1008.7 hPa 0 mm 2.68 m/s, 120° - -
1777754507 6.11° C 59% 1008.7 hPa 0 mm 2.24 m/s, 186° - -
1777754207 6.67° C 58% 1008.8 hPa 0 mm 2.24 m/s, 128° - -
1777753908 6.67° C 57% 1008.9 hPa 0 mm 2.24 m/s, 165° - -
1777753608 6.67° C 58% 1009.1 hPa 0 mm 1.34 m/s, 152° - -
1777753306 6.67° C 59% 1009.2 hPa 0 mm 1.34 m/s, 110° - -
1777753006 6.11° C 59% 1009.2 hPa 0 mm 2.68 m/s, 159° - -
1777752707 6.11° C 59% 1009.2 hPa 0 mm 2.24 m/s, 104° - -
1777752407 6.11° C 59% 1009.2 hPa 0 mm 2.68 m/s, 87° - -
1777752108 6.11° C 58% 1009.3 hPa 0 mm 3.13 m/s, 51° - -
1777751808 6.11° C 59% 1009.4 hPa 0 mm 2.68 m/s, 84° - -
1777751506 6.11° C 59% 1009.4 hPa 0 mm 2.24 m/s, 165° - -
1777751206 6.11° C 60% 1009.4 hPa 0 mm 1.34 m/s, 149° - -
1777750907 6.11° C 59% 1009.5 hPa 0 mm 3.13 m/s, 82° - -
1777750607 6.11° C 59% 1009.5 hPa 0 mm 3.13 m/s, 125° - -
1777750307 6.67° C 60% 1009.5 hPa 0 mm 2.24 m/s, 70° - -
1777750008 6.67° C 58% 1009.6 hPa 0 mm 2.24 m/s, 96° - -
1777749706 6.11° C 58% 1009.7 hPa 0 mm 2.24 m/s, 75° - -
1777749406 6.11° C 58% 1009.7 hPa 0 mm 2.24 m/s, 127° - -
1777749121 6.11° C 58% 1009.8 hPa 0 mm 2.68 m/s, 96° - -
1777748807 6.11° C 58% 1009.9 hPa 0 mm 2.24 m/s, 131° - -
1777748507 6.67° C 58% 1009.9 hPa 0 mm 2.24 m/s, 108° - -
1777748207 6.67° C 58% 1010.1 hPa 0 mm 2.24 m/s, 145° - -
1777747905 6.11° C 59% 1010.2 hPa 0 mm 0.45 m/s, 97° - -

* Rain latest hour (hover to see other rain measurements)
** Current wind speed in m/s (hover to see current wind gust speed)